Location: Vinland
(47.7731°N, 122.6974°W)
Time: 11:04:48
(UTC+00:00)

Transit 4A - Visible Passes

Search period start: 30 March 2023 00:00
Search period end: 09 April 2023 00:00
Orbit: 868 x 976 km, 66.8° (Epoch: 29 March)

Date Brightness Start Highest point End Pass type
(mag) Time Alt. Az. Time Alt. Az. Time Alt. Az.
30 Mar 10.4 11:49:04 10° SE 11:51:47 14° ESE 11:54:33 10° ENE visible
31 Mar 10.1 11:56:29 10° SSE 12:00:38 20° ESE 12:04:50 10° ENE visible
01 Apr 9.5 12:04:36 10° SSE 12:09:33 30° ESE 12:14:35 10° NE visible
02 Apr 8.9 12:13:06 10° S 12:18:32 43° ESE 12:24:05 10° NE visible
03 Apr 8.2 12:21:52 10° SSW 12:27:35 62° ESE 12:33:27 10° NE visible
04 Apr 10.1 10:47:59 10° SE 10:51:18 16° ESE 10:54:40 10° ENE visible
04 Apr 7.8 12:30:53 10° SSW 12:36:44 86° ESE 12:42:43 10° NE visible
05 Apr 9.6 10:56:44 14° SSE 11:00:09 23° ESE 11:04:42 10° ENE visible
05 Apr 7.9 12:40:15 11° SW 12:45:56 70° NW 12:51:55 10° NNE visible
06 Apr 9.1 11:06:02 21° SSE 11:09:05 34° ESE 11:14:22 10° NE visible
06 Apr 8.2 12:49:33 10° SW 12:55:13 51° NW 13:01:05 10° NNE visible
07 Apr 8.5 11:15:16 27° S 11:18:06 48° ESE 11:23:48 10° NE visible
07 Apr 8.6 12:59:09 10° WSW 13:04:36 38° NW 13:10:12 10° NNE visible
08 Apr 10.1 09:40:55 11° ESE 09:41:59 12° E 09:43:57 10° E visible
08 Apr 7.9 11:24:25 32° SSW 11:27:11 69° ESE 11:33:07 10° NE visible
